Flag for Chile Weather past 2 weeks in Talcahuano, Chile

Now
52 °F

Light rain. Overcast.


Feels Like: 46 °F
Forecast: 52 / 55 °F
Wind: 22 mph from North

Location: Concepcion Airport

Current Time: Jul 5, 2015 at 4:06:07 AM

Latest Report: Jul 5, 2015 at 3:00 AM


Visibility: 4 mi

Pressure: 29.83 "Hg

Humidity: 94%

Dew point: 50 °F

Location of TalcahuanoLocation

Historic Weather in Talcahuano — Graph

°F

Talcahuano temperature yesterday

Maximum temperature yesterday: 52 °F (at 4:00 PM)
Minimum temperature yesterday: 32 °F (at 9:00 AM)
Average temperature yesterday: 43 °F

Past Weeks' High & Low Weather Summary

 TemperatureHumidityPressure
High63 °F (Jun 26, 4:00 PM)100% (Jun 20, 4:00 AM)30.27 "Hg (Jun 20, 4:00 AM)
Low32 °F (Jul 4, 9:00 AM)39% (Jun 22, 3:00 PM)29.83 "Hg (Jul 5, 2:00 AM)
Average50 °F83%30.07 "Hg
* Reported Jun 20 2:00 AM — Jul 5 2:00 AM, Talcahuano, Weather by CustomWeather, © 2015

Note: Actual official high and low records may vary slightly from our data, if they occured in-between our weather recording intervals... More about our weather records

Advertising

Talcahuano weather history for previous 24 hours

 ConditionsComfort  
Time TempWeatherWind HumidityBarometerVisibility
2:00 AM
Sun, Jul 5
52 °FRain. Overcast.23 mph94%29.83 "Hg3 mi
1:00 AM52 °FRain. Overcast.21 mph88%29.86 "Hg3 mi
12:00 AM52 °FSprinkles. Passing clouds.17 mph88%29.86 "Hg5 mi
11:00 PM
Sat, Jul 4
52 °FSprinkles. Passing clouds.16 mph88%29.89 "HgN/A
10:00 PM52 °FPassing clouds.15 mph88%29.89 "HgN/A
9:00 PM52 °FPartly cloudy.15 mph82%29.89 "HgN/A
8:00 PM52 °FPassing clouds.15 mph82%29.89 "HgN/A
7:00 PM52 °FMostly cloudy.13 mph82%29.92 "HgN/A
6:00 PM52 °FPartly cloudy.12 mph82%29.89 "HgN/A
5:00 PM52 °FPartly sunny.10 mph82%29.92 "HgN/A
4:00 PM52 °FPartly sunny.9 mph77%29.92 "HgN/A
3:00 PM50 °FScattered clouds.5 mph82%29.92 "Hg5 mi
2:00 PM48 °FPartly sunny.3 mph87%29.92 "Hg5 mi
1:00 PM43 °FFog.1 mph93%29.95 "Hg2 mi
12:00 PM39 °FFog.2 mph100%29.95 "Hg2 mi
11:00 AM37 °FFog.3 mph100%29.95 "Hg3 mi
10:00 AM34 °FFog.2 mph100%29.92 "Hg5 mi
9:00 AM32 °FFog.6 mph100%29.92 "Hg4 mi
8:00 AM34 °FFog.5 mph100%29.92 "Hg2 mi
7:00 AM36 °FFog.2 mph93%29.92 "Hg1 mi
6:00 AM36 °FFog.3 mph100%29.92 "Hg2 mi
5:00 AM36 °FSnow. Fog.2 mph93%29.92 "HgN/A
4:00 AM36 °FSnow. Fog.7 mph93%29.92 "HgN/A
Weather by CustomWeather, © 2015

See weather overviewHow to use our weather pages